Location: Unspecified
(0.0000°N, 0.0000°E)
Time: 19:46:35
(UTC+00:00)

Tiros 1 despin weight - Pass Details

Date: 03 June 2022
Orbit: 591 x 639 km, 48.2° (Epoch: 25 June)

Event Time Altitude Azimuth Distance (km) Brightness Sun altitude
Rises 00:32:19 0° 305° (NW) 2,805 - -66.2°
Reaches altitude 10° 00:34:45 10° 296° (WNW) 1,907 - -66.0°
Maximum altitude 00:38:42 34° 231° (SW) 983 - -65.6°
Drops below altitude 10° 00:42:42 10° 165° (SSE) 1,924 - -65.2°
Sets 00:45:10 0° 156° (SSE) 2,834 - -64.9°
